Lexington Weather

Lexington, Massachusetts, USA

25°F
1/21/2021 10:14am 
  • Lexington Conditions: Clear
  • Temperature: 25.0°F / -3.9°CWarmer 2.2°F than last hour.
  • Dew Point: 13.8°FIncreased 1.6°Fsince last hour.
  • Relative Humidity: 62%Decreased 1.0% since last hour.
  • Wind: Calm, 10-min avg: Calm, gust: None
  • Barometer: 29.78 in Steady
  • Visibility: 10 miles
  • Snow Today: Trace
  •   

Regional Weather Roundup
for Boston / Norton, MA

        
000
ASUS41 KBOX 181404
RWRBOX

REGIONAL WEATHER ROUNDUP
NATIONAL WEATHER SERVICE BOSTON/NORTON MA
900 AM EST MON JAN 18 2021

NOTE:  "FAIR" INDICATES FEW OR NO CLOUDS BELOW 12,000 FEET WITH NO 
SIGNIFICANT WEATHER AND/OR OBSTRUCTIONS TO VISIBILITY.

MAZALL-181500-
EASTERN MASSACHUSETTS
  
CITY           SKY/WX    TMP DP  RH WIND       PRES   REMARKS
BOSTON         MOSUNNY   38  27  64 SW16      29.63R WCI  29          
BEVERLY        SUNNY     40  28  62 SW13      29.60R                  
LAWRENCE       SUNNY     39  28  64 SW12      29.62R WCI  32          
BEDFORD        SUNNY     39  27  62 SW8       29.61R                  
BLUE HILL        N/A     35  26  69 SW12      29.60R WCI  27          
NORWOOD        SUNNY     40  27  59 SW9       29.64R                  
MARSHFIELD     SUNNY     41  28  60 SW12G17   29.64R                  
PLYMOUTH       SUNNY     39  28  64 SW14      29.65R WCI  31          
TAUNTON        SUNNY     40  27  59 W8        29.65R                  
NEW BEDFORD    SUNNY     41  29  62 W13       29.66R                  
$$

MAZALL-181500-
CAPE COD AND THE ISLANDS
  
CITY           SKY/WX    TMP DP  RH WIND       PRES   REMARKS
FALMOUTH       SUNNY     41  30  65 SW18      29.66R                  
HYANNIS        SUNNY     43  30  60 SW13G24   29.65R                  
CHATHAM        SUNNY     42  32  67 W9G20     29.67R                  
NANTUCKET      SUNNY     44  32  62 W17       29.68R                  
MARTHAS VNYRD  MOSUNNY   44  33  65 SW12      29.68R                  
$$
 
MAZALL-181500-
CENTRAL AND WESTERN MASSACHUSETTS
  
CITY           SKY/WX    TMP DP  RH WIND       PRES   REMARKS
WORCESTER      SUNNY     35  25  66 W12       29.60R WCI  27          
FITCHBURG      SUNNY     38  28  67 W7        29.62R                  
ORANGE         MOSUNNY   36  28  73 SW8G16    29.61R WCI  30          
SPRINGFIELD    MOSUNNY   37  27  67 SW6       29.62S                  
WESTFIELD      SUNNY     38  28  67 SW8       29.63R                  
NORTH ADAMS    LGT SNOW  33  30  88 W7        29.62R FOG     WCI  27  
PITTSFIELD     CLOUDY    32  27  81 SW5       29.59R WCI  27          
$$
 
RIZALL-181500-
RHODE ISLAND
  
CITY           SKY/WX    TMP DP  RH WIND       PRES   REMARKS
PROVIDENCE     MOSUNNY   39  28  64 SW9       29.67R                  
NEWPORT        SUNNY     39  29  67 W8        29.67R                  
BLOCK ISLAND   SUNNY     40  29  64 W16G22    29.71R WCI  31          
SMITHFIELD     SUNNY     37  29  72 W12       29.65R WCI  29          
WESTERLY       SUNNY     38  28  67 SW13G21   29.69R WCI  30          
$$
 
CTZALL-181500-
CONNECTICUT
  
CITY           SKY/WX    TMP DP  RH WIND       PRES   REMARKS
BRADLEY INTL   PTSUNNY   36  27  69 S6        29.65R WCI  31          
HARTFORD       MOSUNNY   39  28  64 S6        29.67R                  
BRIDGEPORT     SUNNY     40  30  67 SW10      29.71R                  
DANBURY        MOSUNNY   35  27  72 SW5       29.69R WCI  31          
GROTON         SUNNY     41  30  65 SW13      29.69R                  
NEW HAVEN      SUNNY     40  31  70 SW7       29.70R                  
CHESTER        FAIR      37  28  70 SW9       29.68R WCI  31          
MERIDEN        SUNNY     37  27  67 S8        29.68R WCI  31          
WILLIMANTIC    SUNNY     37  28  70 SW6       29.67R                  
OXFORD         SUNNY     36  31  82 SW6       29.67R WCI  31          
$$

MEZ002-015-021-024-NHZ003-005-008-011-012-014-VTZ005-008-181500-
NORTHERN NEW ENGLAND
  
CITY           SKY/WX    TMP DP  RH WIND       PRES   REMARKS
PORTLAND ME    PTSUNNY   37  29  72 SW8       29.55S WCI  31          
BANGOR ME      CLOUDY    32  24  72 W5        29.51S WCI  27          
CONCORD NH     MOSUNNY   38  28  67 W8        29.57S                  
MANCHESTER NH  PTSUNNY   39  27  62 SW9       29.58R                  
NASHUA NH      SUNNY     39  30  70 VRB6      29.61R                  
PORTSMOUTH NH  MOSUNNY   40  26  58 SW13      29.57R                  
JAFFREY NH     PTSUNNY   34  27  75 SW7       29.57R WCI  28          
KEENE NH       CLOUDY    35  30  82 SW3       29.60S                  
BURLINGTON VT  CLOUDY    26  18  71 NW10      29.62R WCI  16          
MT. WASHINGTON SNOWSHWR   7   7 100 W58         N/A  VSB 0   WCI -23  
$$

NYZ052-076-181500-
EASTERN NEW YORK
  
CITY           SKY/WX    TMP DP  RH WIND       PRES   REMARKS
ALBANY         LGT RAIN  33  30  88 SW5       29.64R WCI  29          
NEW YORK CITY  MOSUNNY   42  27  55 W13       29.73R                  
$$
 
ANZALL-181500-
MARINE OBSERVATIONS
  
STATION/POSITION TIME  TEMP    WIND        PRES    VSBY  WAVE
                       AIR SEA DIR/SP/G                  HT/PER
                 (UTC) (F)     (DEG/KT/KT) (MB)    (MI)  (FT/S)
BOSTON BUOY      1340   39 43  230/ 16/ 19 1003.9R
BUZZARDS BAY     1300          260/ 25/ 27 1005.2S
NANTUCKET SOUND  1340      40  240/ 12/ 14   N/A
MASS BAY-STELLWA 1304   41     240/ 17/ 23 1001.2S  1 7/8  3/ 4
ISLE OF SHOALS   1300   39     240/ 22/ 25 1000.9F
S OF BLOCK IS    1326      49                N/A           7/ 8
$$

......................KEY.........................
  SKY/WX - SKY CONDITION/PRESENT WEATHER
  TMP    - TEMPERATURE IN FAHRENHEIT
  DWPT   - DEWPOINT IN FAHRENHEIT
  RH     - RELATIVE HUMIDITY IN PERCENT
  WIND   - DIRECTION AND SPEED IN MPH
  PRES   - MEAN SEA LEVEL PRESSURE IN INCHES OF HG
  WCI    - WIND CHILL INDEX
  VSB    - VISIBILITY IN MILES
  HX     - HEAT INDEX
  TC     - TEMPERATURE IN CELSIUS
  VRB    - VARIABLE WIND DIRECTION
  N/A    - NOT AVAILABLE
  
      

Other recent Regional Weather Roundups

Thu Jan 21, 9:04am

Thu Jan 21, 7:04am

Thu Jan 21, 6:04am

Thu Jan 21, 5:04am

Thu Jan 21, 4:04am

Thu Jan 21, 3:04am

Thu Jan 21, 2:04am

Thu Jan 21, 1:04am

Thu Jan 21, 12:04am

Wed Jan 20, 11:04pm

Wed Jan 20, 10:05pm

Wed Jan 20, 9:04pm

Wed Jan 20, 8:04pm

Wed Jan 20, 7:04pm

Wed Jan 20, 6:05pm

Wed Jan 20, 5:05pm

Wed Jan 20, 1:04pm

Wed Jan 20, 12:04pm

Wed Jan 20, 11:04am

Wed Jan 20, 10:04am

Wed Jan 20, 9:05am

Wed Jan 20, 8:04am

Wed Jan 20, 7:04am

Wed Jan 20, 6:04am

Wed Jan 20, 5:04am

Wed Jan 20, 4:04am

Wed Jan 20, 3:05am

Wed Jan 20, 2:04am

Wed Jan 20, 1:04am

Wed Jan 20, 12:04am

Tue Jan 19, 11:04pm

Tue Jan 19, 10:04pm

Tue Jan 19, 9:04pm

Tue Jan 19, 8:04pm

Tue Jan 19, 7:04pm

Tue Jan 19, 6:05pm

Tue Jan 19, 5:04pm

Tue Jan 19, 4:05pm

Tue Jan 19, 3:04pm

Tue Jan 19, 2:04pm

Tue Jan 19, 1:04pm

Tue Jan 19, 12:05pm

Tue Jan 19, 11:04am

Tue Jan 19, 10:05am

Tue Jan 19, 9:04am

Tue Jan 19, 8:04am

Tue Jan 19, 7:04am

Tue Jan 19, 6:04am

Tue Jan 19, 5:04am

Tue Jan 19, 4:04am

Tue Jan 19, 3:04am

Tue Jan 19, 2:04am

Tue Jan 19, 1:04am

Tue Jan 19, 12:04am

Mon Jan 18, 11:04pm

Mon Jan 18, 10:04pm

Mon Jan 18, 9:04pm

Mon Jan 18, 8:05pm

Mon Jan 18, 7:04pm

Mon Jan 18, 6:05pm

Mon Jan 18, 5:04pm

Mon Jan 18, 4:04pm

Mon Jan 18, 3:04pm

Mon Jan 18, 2:04pm

Mon Jan 18, 1:04pm

Mon Jan 18, 12:04pm

Mon Jan 18, 11:04am

Mon Jan 18, 10:04am

Mon Jan 18, 8:04am

Mon Jan 18, 7:04am

Mon Jan 18, 6:04am

Mon Jan 18, 5:04am

Mon Jan 18, 4:04am

Mon Jan 18, 3:04am

Mon Jan 18, 2:04am

Mon Jan 18, 1:04am

Mon Jan 18, 12:04am

Sun Jan 17, 11:04pm

Sun Jan 17, 10:04pm

Sun Jan 17, 9:04pm

Sun Jan 17, 8:04pm

Sun Jan 17, 7:04pm

Sun Jan 17, 6:04pm

Sun Jan 17, 5:04pm

Sun Jan 17, 4:05pm

Sun Jan 17, 3:04pm

Sun Jan 17, 2:04pm

Sun Jan 17, 1:04pm

Sun Jan 17, 12:04pm

Sun Jan 17, 11:04am

Sun Jan 17, 10:04am

Sun Jan 17, 9:04am

Sun Jan 17, 8:04am

Sun Jan 17, 7:04am

Sun Jan 17, 6:04am

Sun Jan 17, 5:04am

Sun Jan 17, 4:04am

Sun Jan 17, 3:04am

Sun Jan 17, 2:04am

Sun Jan 17, 1:04am

Sun Jan 17, 12:04am

Sat Jan 16, 11:05pm

Sat Jan 16, 10:04pm

Sat Jan 16, 9:04pm

Sat Jan 16, 8:05pm

Sat Jan 16, 7:04pm

Sat Jan 16, 6:04pm

Sat Jan 16, 5:05pm

Sat Jan 16, 4:05pm

Sat Jan 16, 3:05pm

Sat Jan 16, 2:04pm

Sat Jan 16, 1:04pm

Sat Jan 16, 12:04pm

Sat Jan 16, 11:04am

Sat Jan 16, 10:05am

Sat Jan 16, 9:04am

Sat Jan 16, 8:04am

Sat Jan 16, 7:04am

Sat Jan 16, 6:04am

Sat Jan 16, 5:04am

Sat Jan 16, 4:04am

Sat Jan 16, 3:05am

Sat Jan 16, 2:04am

Sat Jan 16, 1:04am

Sat Jan 16, 12:05am

Fri Jan 15, 11:05pm

Fri Jan 15, 10:04pm

Fri Jan 15, 9:04pm

Fri Jan 15, 8:04pm

Fri Jan 15, 7:05pm

Fri Jan 15, 6:05pm

Fri Jan 15, 5:05pm

Fri Jan 15, 4:05pm

Fri Jan 15, 3:04pm

Fri Jan 15, 2:05pm

Fri Jan 15, 1:04pm

Fri Jan 15, 12:05pm

Fri Jan 15, 11:04am

Fri Jan 15, 10:04am

Fri Jan 15, 9:05am

Fri Jan 15, 8:04am

Fri Jan 15, 7:04am

Fri Jan 15, 6:04am

Fri Jan 15, 5:05am

Fri Jan 15, 4:04am

Fri Jan 15, 3:04am

Fri Jan 15, 2:04am

Fri Jan 15, 1:04am

Fri Jan 15, 12:05am

Thu Jan 14, 11:04pm

Thu Jan 14, 10:04pm

Thu Jan 14, 9:04pm

Thu Jan 14, 8:05pm

Thu Jan 14, 7:04pm

Thu Jan 14, 6:04pm

Thu Jan 14, 5:04pm

Thu Jan 14, 4:05pm

Thu Jan 14, 3:04pm

Thu Jan 14, 2:04pm

Thu Jan 14, 1:04pm

Thu Jan 14, 12:05pm

Thu Jan 14, 11:05am

Thu Jan 14, 10:04am

Thu Jan 14, 9:04am

Thu Jan 14, 8:04am

Thu Jan 14, 7:04am

Thu Jan 14, 6:04am

Thu Jan 14, 5:04am

Thu Jan 14, 4:04am

Thu Jan 14, 3:04am

Thu Jan 14, 2:04am

Thu Jan 14, 1:04am

Thu Jan 14, 12:04am

Wed Jan 13, 11:04pm

Wed Jan 13, 10:04pm

Wed Jan 13, 9:04pm

Wed Jan 13, 8:05pm

Wed Jan 13, 7:04pm

Wed Jan 13, 6:04pm

Wed Jan 13, 5:04pm

Wed Jan 13, 4:04pm

Wed Jan 13, 3:05pm

Wed Jan 13, 2:04pm

Wed Jan 13, 1:04pm

Wed Jan 13, 12:04pm

Wed Jan 13, 11:04am

Wed Jan 13, 10:04am

Wed Jan 13, 9:05am

Wed Jan 13, 8:04am

Wed Jan 13, 7:04am

Wed Jan 13, 6:04am

Wed Jan 13, 5:04am

Wed Jan 13, 4:04am

Wed Jan 13, 3:04am

Wed Jan 13, 2:04am

Wed Jan 13, 1:04am

Wed Jan 13, 12:05am

Tue Jan 12, 11:04pm

Tue Jan 12, 10:04pm

Tue Jan 12, 9:04pm

Tue Jan 12, 8:05pm

Tue Jan 12, 7:04pm

Meta data:

ID: 52721b5d-7d14-4451-bf4e-60075cb8198b
Link: https://api.weather.gov/products/52721b5d-7d14-4451-bf4e-60075cb8198b